Location: Allentsteig
(48.6833°N, 15.3167°E)
Time: 17:22:01
(UTC+00:00)

Cosmos 2227 Rocket - Pass Details

Date: 18 September 2020
Orbit: 840 x 844 km, 71.0° (Epoch: 29 October)

Event Time Altitude Azimuth Distance (km) Brightness Sun altitude
Rises 23:35:32 0° 336° (NNW) 3,406 5.9 -39.1°
Reaches altitude 10° 23:38:29 10° 350° (N) 2,468 5.2 -39.0°
Maximum altitude 23:43:00 24° 43° (NE) 1,683 4.1 -38.8°
Enters shadow 23:43:04 24° 44° (NE) 1,683 4.1 -38.7°
